Wellsville, NY

2:37 AM EST on December 16, 2019 (GMT -0500)
Wellsville Municipal-Tarantine

Weather History for KELZ - August, 2019

Change the Weather History Date:

Monday, August 5, 2019

  Actual Average (KDSV) Record (KDSV)
Temperature  
Mean Temperature 64 °F -  
Max Temperature 79 °F 81 °F 93 °F (1955)
Min Temperature 50 °F 57 °F 41 °F (1972)
Degree Days  
Heating Degree Days 1    
Growing Degree Days 14 (Base 50)    
Moisture  
Dew Point 54 °F    
Average Humidity 87    
Maximum Humidity 100    
Minimum Humidity 48    
Precipitation  
Precipitation 0.00 in - - ()
Sea Level Pressure  
Sea Level Pressure 30.05 in    
Wind  
Wind Speed 1 mph ()    
Max Wind Speed 8 mph    
Max Gust Speed -    
Visibility 4.9 miles    
Events Fog    
Averages and records for this station are not official NWS values.
T = Trace of Precipitation, MM = Missing Value Source: Averaged Metar Reports

Daily Weather History Graph

Daily Weather History Graph

Search for Another Location

Airport or City:

Astronomy

Aug. 05, 2019 Rise Set
Actual Time 6:08 AM EDT 8:26 PM EDT
Civil Twilight 5:37 AM EDT 8:57 PM EDT
Nautical Twilight 4:59 AM EDT 9:35 PM EDT
Astronomical Twilight 4:16 AM EDT 10:18 PM EDT
Moon 11:28 AM EDT (8/5) 11:31 PM EDT (8/5)
Length of Visible Light 15h 19m
Length of Day
14h 17m
Waxing Crescent, 28% of the Moon is Illuminated
Aug 5
Waxing Crescent
Aug 7
First Quarter
Aug 15
Full
Aug 23
Last Quarter
Aug 30
New

Hourly Weather History & Observations

Time (EDT) Temp. Dew Point Humidity Pressure Visibility Wind Dir Wind Speed Gust Speed Precip Events Conditions
12:56 AM 55.0 °F 54.0 °F 96% 30.06 in 10.0 mi Calm Calm - N/A   Clear
1:53 AM 53.6 °F 53.6 °F 100% 30.08 in 1.2 mi Calm Calm - N/A   Clear
1:56 AM 54.0 °F 54.0 °F 100% 30.06 in 0.8 mi Calm Calm - N/A   Clear
2:11 AM 55.0 °F 55.0 °F 100% 30.08 in 2.5 mi Calm Calm - N/A   Clear
2:18 AM 53.1 °F 53.1 °F 100% 30.08 in 4.0 mi Calm Calm - N/A   Clear
2:20 AM 53.1 °F 53.1 °F 100% 30.08 in 1.8 mi Calm Calm - N/A   Partly Cloudy
2:22 AM 54.0 °F 53.1 °F 97% 30.08 in 0.8 mi Calm Calm - N/A   Mist
2:32 AM 53.1 °F 53.1 °F 100% 30.08 in 0.2 mi Calm Calm - N/A Fog Fog
2:38 AM 54.0 °F 54.0 °F 100% 30.08 in 1.2 mi Calm Calm - N/A   Partly Cloudy
2:41 AM 54.0 °F 54.0 °F 100% 30.08 in 4.0 mi Calm Calm - N/A   Partly Cloudy
2:56 AM 54.0 °F 54.0 °F 100% 30.05 in 9.0 mi Calm Calm - N/A   Clear
3:40 AM 53.1 °F 53.1 °F 100% 30.08 in 2.0 mi Calm Calm - N/A   Clear
3:48 AM 52.0 °F 52.0 °F 100% 30.08 in 1.0 mi ESE 3.5 mph - N/A   Mist
3:54 AM 51.8 °F 51.8 °F 100% 30.08 in 0.2 mi Calm Calm - N/A Fog Fog
3:56 AM 52.0 °F 52.0 °F 100% 30.06 in 0.2 mi Calm Calm - N/A Fog Fog
4:17 AM 52.0 °F 52.0 °F 100% 30.08 in 1.0 mi Calm Calm - N/A   Mist
4:20 AM 52.0 °F 52.0 °F 100% 30.08 in 2.5 mi Calm Calm - N/A   Partly Cloudy
4:27 AM 52.0 °F 52.0 °F 100% 30.08 in 10.0 mi Calm Calm - N/A   Partly Cloudy
4:56 AM 51.1 °F 51.1 °F 100% 30.06 in 1.0 mi Calm Calm - N/A   Mist
5:02 AM 51.1 °F 51.1 °F 100% 30.08 in 0.2 mi Calm Calm - N/A Fog Fog
5:53 AM 50.0 °F 50.0 °F 100% 30.08 in 0.8 mi Calm Calm - N/A   Mist
5:56 AM 50.0 °F 50.0 °F 100% 30.07 in 1.2 mi Calm Calm - N/A   Scattered Clouds
6:02 AM 51.1 °F 51.1 °F 100% 30.08 in 3.0 mi Calm Calm - N/A   Scattered Clouds
6:29 AM 50.0 °F 50.0 °F 100% 30.08 in 1.5 mi Calm Calm - N/A   Clear
6:37 AM 50.0 °F 50.0 °F 100% 30.08 in 0.5 mi Calm Calm - N/A Fog Fog
6:56 AM 50.0 °F 50.0 °F 100% 30.07 in 0.5 mi Calm Calm - N/A Fog Fog
7:00 AM 51.1 °F 51.1 °F 100% 30.08 in 3.0 mi Calm Calm - N/A   Clear
7:33 AM 52.0 °F 52.0 °F 100% 30.08 in 1.5 mi Calm Calm - N/A   Partly Cloudy
7:36 AM 52.0 °F 52.0 °F 100% 30.08 in 0.8 mi Calm Calm - N/A   Mist
7:51 AM 51.8 °F 51.8 °F 100% 30.08 in 0.2 mi Calm Calm - N/A Fog Fog
7:56 AM 52.0 °F 52.0 °F 100% 30.07 in 0.2 mi Calm Calm - N/A Fog Fog
8:00 AM 53.1 °F 53.1 °F 100% 30.08 in 1.0 mi Calm Calm - N/A   Mist
8:06 AM 54.0 °F 54.0 °F 100% 30.08 in 10.0 mi Calm Calm - N/A   Scattered Clouds
8:56 AM 60.1 °F 57.0 °F 90% 30.08 in 10.0 mi SE 3.5 mph - N/A   Mostly Cloudy
9:56 AM 66.9 °F 55.0 °F 66% 30.07 in 10.0 mi Calm Calm - N/A   Clear
10:56 AM 72.0 °F 53.1 °F 51% 30.06 in 10.0 mi Calm Calm - N/A   Clear
11:56 AM 73.0 °F 53.1 °F 49% 30.05 in 10.0 mi East 3.5 mph - N/A   Clear
12:56 PM 73.9 °F 55.9 °F 53% 30.04 in 10.0 mi SSE 5.8 mph - N/A   Partly Cloudy
1:56 PM 75.9 °F 57.0 °F 52% 30.03 in 10.0 mi South 5.8 mph - N/A   Partly Cloudy
2:56 PM 77.0 °F 55.9 °F 48% 30.02 in 10.0 mi WNW 5.8 mph - N/A   Clear
3:56 PM 77.0 °F 57.0 °F 50% 30.01 in 10.0 mi North 6.9 mph - N/A   Mostly Cloudy
4:56 PM 78.1 °F 57.9 °F 50% 29.99 in 10.0 mi NNE 3.5 mph - N/A   Clear
5:56 PM 75.9 °F 59.0 °F 56% 29.98 in 10.0 mi Calm Calm - N/A   Clear
6:56 PM 73.9 °F 61.0 °F 64% 29.97 in 10.0 mi Calm Calm - N/A   Partly Cloudy
7:56 PM 71.1 °F 61.0 °F 70% 29.97 in 10.0 mi SSW 5.8 mph - N/A   Clear
8:56 PM 71.1 °F 60.1 °F 68% 29.96 in 10.0 mi South 6.9 mph - N/A   Mostly Cloudy
9:56 PM 70.0 °F 60.1 °F 71% 29.95 in 10.0 mi SSW 6.9 mph - N/A   Clear
10:56 PM 68.0 °F 60.1 °F 76% 29.95 in 10.0 mi SSW 8.1 mph - N/A   Clear
11:56 PM 66.0 °F 59.0 °F 78% 29.95 in 10.0 mi WSW 4.6 mph - N/A   Clear